Regional Weather Roundup
Issued by NWS

Home | Current Version | Previous Version | Graphics & Text | Print | Product List | Glossary On
Versions: 1 2 3 4 5 6 7 8 9 10 11 12 13 14 15 16 17 18 19 20 21 22 23 24 25 26 27 28 29 30 31 32 33 34 35 36 37 38 39 40 41 42 43 44 45 46 47 48 49 50
000
ASUS45 KCYS 030810
RWRWY

WYOMING REGIONAL WEATHER ROUNDUP
NATIONAL WEATHER SERVICE CHEYENNE WY
100 AM MST SAT DEC 03 2016

NOTE:  "FAIR" INDICATES FEW OR NO CLOUDS BELOW 12,000 FEET
WITH NO SIGNIFICANT WEATHER AND/OR OBSTRUCTIONS TO VISIBILITY.

WYZ001-030900-
YELLOWSTONE NATIONAL PARK

CITY           SKY/WX    TMP DP  RH WIND       PRES   REMARKS
LK YELLOWSTONE   N/A     11   8  88 VRB3      30.07F
W YELLOWSTONE  NOT AVBL

$$
WYZ002>013-054>058-071-098>099-030900-
NORTHERN WYOMING

CITY           SKY/WX    TMP DP  RH WIND       PRES   REMARKS
JACKSON        CLOUDY    16  14  93 S9        30.13F WCI   4
CODY           MOCLDY    31   9  39 W14G31    29.95F WCI  21
GREYBULL       NOT AVBL
WORLAND        NOT AVBL
SHERIDAN       NOT AVBL
BUFFALO        FAIR      23   6  48 W8        29.91F WCI  14
GILLETTE       FAIR      24  16  71 S18       29.93F WCI  10
HULETT         FAIR      30  23  74 S17G24    29.98F WCI  18
NEWCASTLE      FAIR      27  19  74 SE8       30.05F WCI  18

$$
WYZ014>020-022>026-101>103-030900-
CENTRAL WYOMING

CITY           SKY/WX    TMP DP  RH WIND       PRES   REMARKS
BIG PINEY      NOT AVBL
PINEDALE       FAIR       9   3  78 NW9       30.12F WCI  -5
DUBOIS         FAIR      18   5  57 N21G33    30.00S WCI   1
LANDER         NOT AVBL
RIVERTON       NOT AVBL
CASPER         FAIR      21  14  74 SW17      30.01F WCI   7
DOUGLAS        FAIR      11   9  92 S5        30.04F WCI   3

$$
WYZ021-027>030-104>119-030900-
SOUTHERN WYOMING

CITY           SKY/WX    TMP DP  RH WIND       PRES   REMARKS
EVANSTON       NOT AVBL
FORT BRIDGER   FAIR      17  11  78 W15G21    30.18F WCI   2
ROCK SPRINGS   NOT AVBL
DIXON          FLURRIES  16  12  86 CALM      30.18S
RAWLINS        FAIR      14   9  80 SW14      30.09R WCI  -1
SARATOGA       FAIR       9   9 100 S8        30.10S WCI  -4
LARAMIE        FAIR       5   2  87 S3        30.03F FOG
CHEYENNE       FAIR      19  16  88 SW8       30.06F WCI   9
TORRINGTON     FAIR      24  19  81 SW3       30.09F
PINE BLUFFS    CLOUDY    23  21  93 S7        30.12F WCI  15

$$



USA.gov is the U.S. government's official web portal to all federal, state and local government web resources and services.